Time,TemperatureF,DewpointF,PressureIn,WindDirection,WindDirectionDegrees,WindSpeedMPH,WindSpeedGustMPH,Humidity,HourlyPrecipIn,Conditions,Clouds,dailyrainin,SoftwareType,DateUTC
2013-08-08 00:00:00,75.1,70.3,30.09,SSE,157,0.0,4.0,85,0.00,,---,0.00,VWS V14.01,2013-08-08 04:00:00,
2013-08-08 00:01:00,75.1,70.3,30.09,SSE,157,1.0,1.0,85,0.00,,---,0.00,VWS V14.01,2013-08-08 04:01:00,
2013-08-08 00:02:00,75.2,70.4,30.09,SSE,156,1.0,3.0,85,0.00,,---,0.00,VWS V14.01,2013-08-08 04:02:00,
2013-08-08 00:03:00,75.2,70.4,30.09,SSE,156,0.0,3.0,85,0.00,,---,0.00,VWS V14.01,2013-08-08 04:03:00,
2013-08-08 00:08:00,75.2,70.4,30.09,SSE,168,2.0,3.0,85,0.00,,---,0.00,VWS V14.01,2013-08-08 04:08:00,
2013-08-08 00:13:00,75.2,70.4,30.09,South,169,0.0,3.0,85,0.00,,---,0.00,VWS V14.01,2013-08-08 04:13:00,
2013-08-08 00:18:00,75.2,70.4,30.09,SSE,168,1.0,1.0,85,0.00,,---,0.00,VWS V14.01,2013-08-08 04:18:00,
2013-08-08 00:23:00,75.2,70.4,30.09,South,187,1.0,2.0,85,0.00,,---,0.00,VWS V14.01,2013-08-08 04:23:00,
2013-08-08 00:28:00,75.2,70.4,30.09,South,173,2.0,3.0,85,0.00,,---,0.00,VWS V14.01,2013-08-08 04:28:00,
2013-08-08 00:33:00,75.1,70.3,30.09,South,171,1.0,3.0,85,0.00,,---,0.00,VWS V14.01,2013-08-08 04:33:00,
2013-08-08 00:38:00,75.0,70.2,30.09,SSE,147,2.0,3.0,85,0.00,,---,0.00,VWS V14.01,2013-08-08 04:38:00,
2013-08-08 00:43:00,74.9,70.1,30.09,SSE,165,0.0,3.0,85,0.00,,---,0.00,VWS V14.01,2013-08-08 04:43:00,
2013-08-08 00:48:00,74.8,70.3,30.09,SSE,155,0.0,3.0,86,0.00,,---,0.00,VWS V14.01,2013-08-08 04:48:00,
2013-08-08 00:53:00,74.7,70.2,30.09,SSE,163,0.0,3.0,86,0.00,,---,0.00,VWS V14.01,2013-08-08 04:53:00,
2013-08-08 00:58:00,74.7,70.2,30.09,South,184,2.0,6.0,86,0.00,,---,0.00,VWS V14.01,2013-08-08 04:58:00,
2013-08-08 01:03:00,74.7,69.9,30.09,South,180,4.0,4.0,85,0.00,,---,0.00,VWS V14.01,2013-08-08 05:03:00,
2013-08-08 01:08:00,74.7,69.9,30.09,SSE,166,0.0,4.0,85,0.00,,---,0.00,VWS V14.01,2013-08-08 05:08:00,
2013-08-08 01:13:00,74.6,70.1,30.09,South,169,0.0,4.0,86,0.00,,---,0.00,VWS V14.01,2013-08-08 05:13:00,
2013-08-08 01:19:00,74.6,69.8,30.09,South,171,4.0,4.0,85,0.00,,---,0.00,VWS V14.01,2013-08-08 05:19:00,
2013-08-08 01:24:00,74.5,69.7,30.09,South,190,2.0,4.0,85,0.00,,---,0.00,VWS V14.01,2013-08-08 05:24:00,
2013-08-08 01:29:00,74.4,69.6,30.09,SSE,166,1.0,4.0,85,0.00,,---,0.00,VWS V14.01,2013-08-08 05:29:00,
2013-08-08 01:34:00,74.4,69.9,30.09,SSW,200,1.0,3.0,86,0.00,,---,0.00,VWS V14.01,2013-08-08 05:34:00,
2013-08-08 01:39:00,74.3,69.8,30.09,SSW,200,0.0,3.0,86,0.00,,---,0.00,VWS V14.01,2013-08-08 05:39:00,
2013-08-08 01:44:00,74.2,69.8,30.08,South,169,0.0,3.0,86,0.00,,---,0.00,VWS V14.01,2013-08-08 05:44:00,
2013-08-08 01:49:00,74.2,69.8,30.08,SSE,168,3.0,6.0,86,0.00,,---,0.00,VWS V14.01,2013-08-08 05:49:00,
2013-08-08 01:54:00,74.1,69.7,30.08,South,182,0.0,6.0,86,0.00,,---,0.00,VWS V14.01,2013-08-08 05:54:00,
2013-08-08 01:59:00,74.1,69.7,30.08,SSE,165,0.0,6.0,86,0.00,,---,0.00,VWS V14.01,2013-08-08 05:59:00,
2013-08-08 02:04:00,74.0,69.6,30.08,SSE,166,0.0,3.0,86,0.00,,---,0.00,VWS V14.01,2013-08-08 06:04:00,
2013-08-08 02:09:00,73.9,69.4,30.08,South,181,0.0,4.0,86,0.00,,---,0.00,VWS V14.01,2013-08-08 06:09:00,
2013-08-08 02:14:00,73.8,69.3,30.08,SSE,161,1.0,4.0,86,0.00,,---,0.00,VWS V14.01,2013-08-08 06:14:00,
2013-08-08 02:19:00,73.8,69.3,30.08,South,172,3.0,6.0,86,0.00,,---,0.00,VWS V14.01,2013-08-08 06:19:00,
2013-08-08 02:24:00,73.8,69.7,30.08,SW,218,0.0,6.0,87,0.00,,---,0.00,VWS V14.01,2013-08-08 06:24:00,
2013-08-08 02:29:00,73.8,69.7,30.07,South,188,2.0,6.0,87,0.00,,---,0.00,VWS V14.01,2013-08-08 06:29:00,
2013-08-08 02:34:00,73.7,69.6,30.07,South,190,0.0,3.0,87,0.00,,---,0.00,VWS V14.01,2013-08-08 06:34:00,
2013-08-08 02:40:00,73.6,69.5,30.07,South,180,1.0,3.0,87,0.00,,---,0.00,VWS V14.01,2013-08-08 06:40:00,
2013-08-08 02:45:00,73.5,69.7,30.07,SSW,194,1.0,3.0,88,0.00,,---,0.00,VWS V14.01,2013-08-08 06:45:00,
2013-08-08 02:50:00,73.5,69.7,30.07,South,181,1.0,4.0,88,0.00,,---,0.00,VWS V14.01,2013-08-08 06:50:00,
2013-08-08 02:55:00,73.4,69.6,30.07,South,184,3.0,4.0,88,0.00,,---,0.00,VWS V14.01,2013-08-08 06:55:00,
2013-08-08 03:00:00,73.4,69.6,30.07,SSW,209,1.0,5.0,88,0.00,,---,0.00,VWS V14.01,2013-08-08 07:00:00,
2013-08-08 03:05:00,73.3,69.5,30.07,South,175,0.0,4.0,88,0.00,,---,0.00,VWS V14.01,2013-08-08 07:05:00,
2013-08-08 03:10:00,73.2,69.4,30.07,SSW,193,4.0,4.0,88,0.00,,---,0.00,VWS V14.01,2013-08-08 07:10:00,
2013-08-08 03:15:00,73.1,69.7,30.07,SSE,155,2.0,3.0,89,0.00,,---,0.00,VWS V14.01,2013-08-08 07:15:00,
2013-08-08 03:20:00,73.1,69.7,30.07,SW,216,0.0,3.0,89,0.00,,---,0.00,VWS V14.01,2013-08-08 07:20:00,
2013-08-08 03:25:00,73.0,69.6,30.07,South,188,1.0,4.0,89,0.00,,---,0.00,VWS V14.01,2013-08-08 07:25:00,
2013-08-08 03:31:00,73.0,69.6,30.07,South,188,0.0,0.0,89,0.00,,---,0.00,VWS V14.01,2013-08-08 07:31:00,
2013-08-08 03:36:00,72.9,69.5,30.07,South,188,1.0,2.0,89,0.00,,---,0.00,VWS V14.01,2013-08-08 07:36:00,
2013-08-08 03:41:00,72.8,69.7,30.07,South,188,2.0,3.0,90,0.00,,---,0.00,VWS V14.01,2013-08-08 07:41:00,
2013-08-08 03:46:00,72.8,69.7,30.07,SSW,194,0.0,0.0,90,0.00,,---,0.00,VWS V14.01,2013-08-08 07:46:00,
2013-08-08 03:51:00,72.8,69.7,30.07,South,185,1.0,2.0,90,0.00,,---,0.00,VWS V14.01,2013-08-08 07:51:00,
2013-08-08 03:56:00,72.7,69.6,30.07,SW,215,1.0,4.0,90,0.00,,---,0.00,VWS V14.01,2013-08-08 07:56:00,
2013-08-08 04:01:00,72.7,69.6,30.07,SSE,163,2.0,2.0,90,0.00,,---,0.00,VWS V14.01,2013-08-08 08:01:00,
2013-08-08 04:06:00,72.6,69.5,30.07,South,182,0.0,2.0,90,0.00,,---,0.00,VWS V14.01,2013-08-08 08:06:00,
2013-08-08 04:11:00,72.6,69.5,30.07,South,182,0.0,2.0,90,0.00,,---,0.00,VWS V14.01,2013-08-08 08:11:00,
2013-08-08 04:16:00,72.6,69.5,30.07,SSW,205,1.0,2.0,90,0.00,,---,0.00,VWS V14.01,2013-08-08 08:16:00,
2013-08-08 04:21:00,72.6,69.5,30.07,SSW,205,0.0,2.0,90,0.00,,---,0.00,VWS V14.01,2013-08-08 08:21:00,
2013-08-08 04:26:00,72.6,69.5,30.07,SSW,205,0.0,2.0,90,0.00,,---,0.00,VWS V14.01,2013-08-08 08:26:00,
2013-08-08 04:31:00,72.6,69.8,30.07,South,180,0.0,0.0,91,0.00,,---,0.00,VWS V14.01,2013-08-08 08:31:00,
2013-08-08 04:37:00,72.6,69.8,30.07,South,180,0.0,0.0,91,0.00,,---,0.00,VWS V14.01,2013-08-08 08:37:00,
2013-08-08 04:42:00,72.5,69.7,30.07,South,181,0.0,0.0,91,0.00,,---,0.00,VWS V14.01,2013-08-08 08:42:00,
2013-08-08 04:47:00,72.5,69.7,30.07,South,181,0.0,0.0,91,0.00,,---,0.00,VWS V14.01,2013-08-08 08:47:00,
2013-08-08 04:52:00,72.5,69.7,30.07,SSW,198,0.0,0.0,91,0.00,,---,0.00,VWS V14.01,2013-08-08 08:52:00,
2013-08-08 04:57:00,72.6,69.8,30.07,SSW,198,0.0,0.0,91,0.00,,---,0.00,VWS V14.01,2013-08-08 08:57:00,
2013-08-08 05:02:00,72.6,69.8,30.07,SSW,198,0.0,0.0,91,0.00,,---,0.00,VWS V14.01,2013-08-08 09:02:00,
2013-08-08 05:07:00,72.6,69.8,30.07,SSW,198,0.0,0.0,91,0.00,,---,0.00,VWS V14.01,2013-08-08 09:07:00,
2013-08-08 05:12:00,72.5,69.7,30.07,SSW,198,0.0,0.0,91,0.00,,---,0.00,VWS V14.01,2013-08-08 09:12:00,
2013-08-08 05:17:00,72.5,69.7,30.07,SSW,198,0.0,0.0,91,0.00,,---,0.00,VWS V14.01,2013-08-08 09:17:00,
2013-08-08 05:22:00,72.5,69.7,30.07,SSW,198,0.0,0.0,91,0.00,,---,0.00,VWS V14.01,2013-08-08 09:22:00,
2013-08-08 05:27:00,72.5,69.7,30.07,SSW,198,0.0,0.0,91,0.00,,---,0.00,VWS V14.01,2013-08-08 09:27:00,
2013-08-08 05:32:00,72.5,69.7,30.07,SSW,200,0.0,0.0,91,0.00,,---,0.00,VWS V14.01,2013-08-08 09:32:00,
2013-08-08 05:37:00,72.5,69.7,30.07,SSW,200,0.0,0.0,91,0.00,,---,0.00,VWS V14.01,2013-08-08 09:37:00,
2013-08-08 05:42:00,72.4,69.9,30.07,SSW,201,0.0,0.0,92,0.00,,---,0.00,VWS V14.01,2013-08-08 09:42:00,
2013-08-08 05:47:00,72.4,69.9,30.08,SSW,201,0.0,0.0,92,0.00,,---,0.00,VWS V14.01,2013-08-08 09:47:00,
2013-08-08 05:52:00,72.4,69.9,30.07,SSW,201,0.0,0.0,92,0.00,,---,0.00,VWS V14.01,2013-08-08 09:52:00,
2013-08-08 05:57:00,72.4,69.9,30.07,SSW,207,0.0,0.0,92,0.00,,---,0.00,VWS V14.01,2013-08-08 09:57:00,
2013-08-08 06:03:00,72.4,69.9,30.07,SSW,207,0.0,0.0,92,0.00,,---,0.00,VWS V14.01,2013-08-08 10:03:00,
2013-08-08 06:08:00,72.3,69.8,30.08,SSW,207,0.0,0.0,92,0.00,,---,0.00,VWS V14.01,2013-08-08 10:08:00,
2013-08-08 06:13:00,72.3,69.8,30.08,SSW,207,0.0,0.0,92,0.00,,---,0.00,VWS V14.01,2013-08-08 10:13:00,
2013-08-08 06:18:00,72.3,69.8,30.08,SSW,198,0.0,1.0,92,0.00,,---,0.00,VWS V14.01,2013-08-08 10:18:00,
2013-08-08 06:23:00,72.3,69.8,30.08,SSW,198,0.0,1.0,92,0.00,,---,0.00,VWS V14.01,2013-08-08 10:23:00,
2013-08-08 06:28:00,72.3,69.8,30.08,SSW,195,0.0,1.0,92,0.00,,---,0.00,VWS V14.01,2013-08-08 10:28:00,
2013-08-08 06:33:00,72.3,69.8,30.08,South,188,0.0,0.0,92,0.00,,---,0.00,VWS V14.01,2013-08-08 10:33:00,
2013-08-08 06:38:00,72.3,69.8,30.08,SSW,209,0.0,1.0,92,0.00,,---,0.00,VWS V14.01,2013-08-08 10:38:00,
2013-08-08 06:43:00,72.3,69.8,30.08,SSW,209,0.0,1.0,92,0.00,,---,0.00,VWS V14.01,2013-08-08 10:43:00,
2013-08-08 06:48:00,72.3,69.8,30.08,SSW,209,0.0,1.0,92,0.00,,---,0.00,VWS V14.01,2013-08-08 10:48:00,
2013-08-08 06:53:00,72.4,69.9,30.08,SSW,210,0.0,1.0,92,0.00,,---,0.00,VWS V14.01,2013-08-08 10:53:00,
2013-08-08 06:58:00,72.4,69.9,30.08,SSW,210,0.0,1.0,92,0.00,,---,0.00,VWS V14.01,2013-08-08 10:58:00,
2013-08-08 07:04:00,72.4,69.9,30.08,SSW,210,0.0,0.0,92,0.00,,---,0.00,VWS V14.01,2013-08-08 11:04:00,
2013-08-08 07:09:00,72.5,70.1,30.08,SSW,210,0.0,1.0,92,0.00,,---,0.00,VWS V14.01,2013-08-08 11:09:00,
2013-08-08 07:14:00,72.5,70.1,30.08,SSW,210,0.0,1.0,92,0.00,,---,0.00,VWS V14.01,2013-08-08 11:14:00,
2013-08-08 07:19:00,72.5,70.4,30.08,SSW,210,0.0,1.0,93,0.00,,---,0.00,VWS V14.01,2013-08-08 11:19:00,
2013-08-08 07:24:00,72.5,70.4,30.08,SSW,210,0.0,1.0,93,0.00,,---,0.00,VWS V14.01,2013-08-08 11:24:00,
2013-08-08 07:29:00,72.5,70.4,30.08,SSW,207,0.0,1.0,93,0.00,,---,0.00,VWS V14.01,2013-08-08 11:29:00,
2013-08-08 07:34:00,72.6,70.5,30.08,SSW,207,0.0,1.0,93,0.00,,---,0.00,VWS V14.01,2013-08-08 11:34:00,
2013-08-08 07:39:00,72.6,70.5,30.08,South,173,0.0,1.0,93,0.00,,---,0.00,VWS V14.01,2013-08-08 11:39:00,
2013-08-08 07:44:00,72.6,70.5,30.08,South,186,0.0,1.0,93,0.00,,---,0.00,VWS V14.01,2013-08-08 11:44:00,
2013-08-08 07:49:00,72.7,70.6,30.08,South,186,0.0,1.0,93,0.00,,---,0.00,VWS V14.01,2013-08-08 11:49:00,
2013-08-08 07:54:00,72.8,70.7,30.08,South,186,0.0,1.0,93,0.00,,---,0.00,VWS V14.01,2013-08-08 11:54:00,
2013-08-08 08:00:00,72.8,70.7,30.08,South,186,0.0,1.0,93,0.00,,---,0.00,VWS V14.01,2013-08-08 12:00:00,
2013-08-08 08:05:00,72.9,70.8,30.09,South,183,0.0,1.0,93,0.00,,---,0.00,VWS V14.01,2013-08-08 12:05:00,
2013-08-08 08:10:00,72.9,70.4,30.09,SW,215,0.0,1.0,92,0.00,,---,0.00,VWS V14.01,2013-08-08 12:10:00,
2013-08-08 08:15:00,72.9,70.4,30.09,SW,215,0.0,1.0,92,0.00,,---,0.00,VWS V14.01,2013-08-08 12:15:00,
2013-08-08 08:20:00,72.9,70.4,30.09,South,178,0.0,1.0,92,0.00,,---,0.00,VWS V14.01,2013-08-08 12:20:00,
2013-08-08 08:25:00,72.9,70.8,30.09,South,178,0.0,1.0,93,0.00,,---,0.00,VWS V14.01,2013-08-08 12:25:00,
2013-08-08 08:30:00,72.8,70.7,30.09,South,179,0.0,1.0,93,0.00,,---,0.00,VWS V14.01,2013-08-08 12:30:00,
2013-08-08 08:35:00,72.9,70.8,30.09,South,183,0.0,1.0,93,0.00,,---,0.00,VWS V14.01,2013-08-08 12:35:00,
2013-08-08 08:40:00,72.9,70.8,30.09,South,171,0.0,1.0,93,0.00,,---,0.00,VWS V14.01,2013-08-08 12:40:00,
2013-08-08 08:45:00,72.9,70.8,30.09,South,171,0.0,1.0,93,0.00,,---,0.00,VWS V14.01,2013-08-08 12:45:00,
2013-08-08 08:50:00,73.0,70.9,30.10,SW,233,0.0,1.0,93,0.00,,---,0.00,VWS V14.01,2013-08-08 12:50:00,
2013-08-08 08:55:00,73.3,71.2,30.10,SW,233,0.0,1.0,93,0.00,,---,0.00,VWS V14.01,2013-08-08 12:55:00,
2013-08-08 09:00:00,73.3,70.8,30.10,SSW,194,0.0,0.0,92,0.00,,---,0.00,VWS V14.01,2013-08-08 13:00:00,
2013-08-08 09:05:00,73.4,70.9,30.10,SSW,196,0.0,1.0,92,0.00,,---,0.00,VWS V14.01,2013-08-08 13:05:00,
2013-08-08 09:10:00,73.6,71.1,30.10,South,182,0.0,1.0,92,0.00,,---,0.00,VWS V14.01,2013-08-08 13:10:00,
2013-08-08 09:16:00,73.6,71.1,30.10,South,182,0.0,0.0,92,0.00,,---,0.00,VWS V14.01,2013-08-08 13:16:00,
2013-08-08 09:21:00,73.9,71.4,30.10,SSW,203,0.0,1.0,92,0.00,,---,0.00,VWS V14.01,2013-08-08 13:21:00,
2013-08-08 09:26:00,74.1,71.3,30.10,SSW,202,0.0,1.0,91,0.00,,---,0.00,VWS V14.01,2013-08-08 13:26:00,
2013-08-08 09:31:00,74.3,71.5,30.10,South,190,0.0,0.0,91,0.00,,---,0.00,VWS V14.01,2013-08-08 13:31:00,
2013-08-08 09:36:00,74.2,71.4,30.10,SSW,204,0.0,1.0,91,0.00,,---,0.00,VWS V14.01,2013-08-08 13:36:00,
2013-08-08 09:41:00,74.3,71.5,30.11,SSW,204,0.0,1.0,91,0.00,,---,0.00,VWS V14.01,2013-08-08 13:41:00,
2013-08-08 09:46:00,74.4,71.6,30.11,SSW,209,0.0,1.0,91,0.00,,---,0.00,VWS V14.01,2013-08-08 13:46:00,
2013-08-08 09:51:00,74.4,71.3,30.11,South,184,0.0,1.0,90,0.00,,---,0.00,VWS V14.01,2013-08-08 13:51:00,
2013-08-08 09:56:00,74.4,71.3,30.11,South,191,0.0,1.0,90,0.00,,---,0.00,VWS V14.01,2013-08-08 13:56:00,
2013-08-08 10:01:00,74.4,71.3,30.11,South,191,0.0,0.0,90,0.00,,---,0.00,VWS V14.01,2013-08-08 14:01:00,
2013-08-08 10:06:00,74.4,71.3,30.11,South,179,0.0,1.0,90,0.00,,---,0.00,VWS V14.01,2013-08-08 14:06:00,
2013-08-08 10:11:00,74.4,71.3,30.11,South,179,0.0,1.0,90,0.00,,---,0.00,VWS V14.01,2013-08-08 14:11:00,
2013-08-08 10:16:00,74.5,71.4,30.11,South,179,0.0,0.0,90,0.00,,---,0.00,VWS V14.01,2013-08-08 14:16:00,
2013-08-08 10:21:00,74.6,71.8,30.11,South,179,0.0,0.0,91,0.00,,---,0.00,VWS V14.01,2013-08-08 14:21:00,
2013-08-08 10:26:00,74.8,71.7,30.11,South,179,0.0,0.0,90,0.00,,---,0.00,VWS V14.01,2013-08-08 14:26:00,
2013-08-08 10:31:00,74.9,72.1,30.11,South,179,0.0,1.0,91,0.00,,---,0.00,VWS V14.01,2013-08-08 14:31:00,
2013-08-08 10:37:00,75.1,72.3,30.11,South,179,0.0,1.0,91,0.00,,---,0.00,VWS V14.01,2013-08-08 14:37:00,
2013-08-08 10:42:00,75.1,72.0,30.11,SW,234,0.0,1.0,90,0.00,,---,0.00,VWS V14.01,2013-08-08 14:42:00,
2013-08-08 10:47:00,75.5,72.7,30.11,SW,234,0.0,0.0,91,0.00,,---,0.00,VWS V14.01,2013-08-08 14:47:00,
2013-08-08 10:52:00,75.8,72.7,30.11,SSE,164,0.0,0.0,90,0.00,,---,0.00,VWS V14.01,2013-08-08 14:52:00,
2013-08-08 10:57:00,76.0,72.5,30.11,SSE,165,0.0,0.0,89,0.00,,---,0.00,VWS V14.01,2013-08-08 14:57:00,
2013-08-08 11:02:00,76.2,72.4,30.11,SSE,167,0.0,0.0,88,0.00,,---,0.00,VWS V14.01,2013-08-08 15:02:00,
2013-08-08 11:07:00,76.7,73.2,30.11,South,188,0.0,0.0,89,0.00,,---,0.00,VWS V14.01,2013-08-08 15:07:00,
2013-08-08 11:12:00,76.8,72.6,30.11,South,169,0.0,0.0,87,0.00,,---,0.00,VWS V14.01,2013-08-08 15:12:00,
2013-08-08 11:17:00,77.2,73.4,30.11,South,170,0.0,0.0,88,0.00,,---,0.00,VWS V14.01,2013-08-08 15:17:00,
2013-08-08 11:22:00,77.8,73.3,30.11,West,273,0.0,1.0,86,0.00,,---,0.00,VWS V14.01,2013-08-08 15:22:00,
2013-08-08 11:27:00,78.1,72.5,30.11,SW,216,0.0,1.0,83,0.00,,---,0.00,VWS V14.01,2013-08-08 15:27:00,
2013-08-08 11:32:00,78.4,73.5,30.11,West,269,0.0,0.0,85,0.00,,---,0.00,VWS V14.01,2013-08-08 15:32:00,
2013-08-08 11:37:00,79.2,74.7,30.11,WSW,248,0.0,1.0,86,0.00,,---,0.00,VWS V14.01,2013-08-08 15:37:00,
2013-08-08 11:42:00,79.6,73.6,30.11,South,190,0.0,1.0,82,0.00,,---,0.00,VWS V14.01,2013-08-08 15:42:00,
2013-08-08 11:48:00,79.0,73.0,30.11,South,180,0.0,0.0,82,0.00,,---,0.00,VWS V14.01,2013-08-08 15:48:00,
2013-08-08 11:53:00,80.8,74.8,30.11,South,175,0.0,1.0,82,0.00,,---,0.00,VWS V14.01,2013-08-08 15:53:00,
2013-08-08 11:58:00,80.2,73.5,30.11,SSE,162,0.0,1.0,80,0.00,,---,0.00,VWS V14.01,2013-08-08 15:58:00,
2013-08-08 12:03:00,80.0,74.4,30.11,SSW,204,0.0,1.0,83,0.00,,---,0.00,VWS V14.01,2013-08-08 16:03:00,
2013-08-08 12:08:00,80.1,74.1,30.11,SW,221,0.0,1.0,82,0.00,,---,0.00,VWS V14.01,2013-08-08 16:08:00,
2013-08-08 12:13:00,80.9,73.8,30.11,SSE,159,0.0,1.0,79,0.00,,---,0.00,VWS V14.01,2013-08-08 16:13:00,
2013-08-08 12:18:00,80.3,73.6,30.11,SSE,161,0.0,0.0,80,0.00,,---,0.00,VWS V14.01,2013-08-08 16:18:00,
2013-08-08 12:23:00,80.8,74.1,30.11,South,181,0.0,1.0,80,0.00,,---,0.00,VWS V14.01,2013-08-08 16:23:00,
2013-08-08 12:28:00,80.8,74.1,30.11,SSW,199,0.0,1.0,80,0.00,,---,0.00,VWS V14.01,2013-08-08 16:28:00,
2013-08-08 12:33:00,81.0,74.6,30.11,SSW,211,0.0,0.0,81,0.00,,---,0.00,VWS V14.01,2013-08-08 16:33:00,
2013-08-08 12:38:00,81.9,75.1,30.11,WSW,239,0.0,0.0,80,0.00,,---,0.00,VWS V14.01,2013-08-08 16:38:00,
2013-08-08 12:43:00,81.9,74.4,30.11,SSE,162,0.0,0.0,78,0.00,,---,0.00,VWS V14.01,2013-08-08 16:43:00,
2013-08-08 12:48:00,82.0,74.5,30.11,South,175,0.0,4.0,78,0.00,,---,0.00,VWS V14.01,2013-08-08 16:48:00,
2013-08-08 12:54:00,82.1,74.2,30.11,SSE,154,6.0,8.0,77,0.00,,---,0.00,VWS V14.01,2013-08-08 16:54:00,
2013-08-08 12:59:00,82.7,75.5,30.11,SSW,203,3.0,8.0,79,0.00,,---,0.00,VWS V14.01,2013-08-08 16:59:00,
2013-08-08 13:04:00,82.4,74.5,30.10,SSE,155,3.0,7.0,77,0.00,,---,0.00,VWS V14.01,2013-08-08 17:04:00,
2013-08-08 13:09:00,82.6,74.7,30.10,South,169,4.0,7.0,77,0.00,,---,0.00,VWS V14.01,2013-08-08 17:09:00,
2013-08-08 13:14:00,83.0,74.7,30.10,South,175,3.0,7.0,76,0.00,,---,0.00,VWS V14.01,2013-08-08 17:14:00,
2013-08-08 13:19:00,83.5,75.9,30.10,West,259,2.0,6.0,78,0.00,,---,0.00,VWS V14.01,2013-08-08 17:19:00,
2013-08-08 13:24:00,84.9,76.9,30.10,West,259,0.0,6.0,77,0.00,,---,0.00,VWS V14.01,2013-08-08 17:24:00,
2013-08-08 13:29:00,85.2,74.7,30.10,WSW,238,0.0,6.0,71,0.00,,---,0.00,VWS V14.01,2013-08-08 17:29:00,
2013-08-08 13:34:00,83.7,73.3,30.09,SSE,151,2.0,5.0,71,0.00,,---,0.00,VWS V14.01,2013-08-08 17:34:00,
2013-08-08 13:39:00,83.7,74.5,30.09,SSW,198,0.0,5.0,74,0.00,,---,0.00,VWS V14.01,2013-08-08 17:39:00,
2013-08-08 13:44:00,84.6,75.4,30.09,South,188,3.0,7.0,74,0.00,,---,0.00,VWS V14.01,2013-08-08 17:44:00,
2013-08-08 13:49:00,85.3,74.4,30.09,WNW,300,1.0,6.0,70,0.00,,---,0.00,VWS V14.01,2013-08-08 17:49:00,
2013-08-08 13:55:00,84.5,73.2,30.09,WNW,284,0.0,7.0,69,0.00,,---,0.00,VWS V14.01,2013-08-08 17:55:00,
2013-08-08 14:00:00,84.8,74.8,30.09,South,170,2.0,7.0,72,0.00,,---,0.00,VWS V14.01,2013-08-08 18:00:00,
2013-08-08 14:05:00,84.3,73.5,30.09,SSW,192,1.0,4.0,70,0.00,,---,0.00,VWS V14.01,2013-08-08 18:05:00,
2013-08-08 14:10:00,84.9,73.6,30.08,South,175,3.0,6.0,69,0.00,,---,0.00,VWS V14.01,2013-08-08 18:10:00,
2013-08-08 14:15:00,84.1,73.3,30.08,West,263,1.0,6.0,70,0.00,,---,0.00,VWS V14.01,2013-08-08 18:15:00,
2013-08-08 14:20:00,84.5,74.1,30.08,South,169,0.0,7.0,71,0.00,,---,0.00,VWS V14.01,2013-08-08 18:20:00,
2013-08-08 14:25:00,85.5,73.7,30.08,WSW,249,6.0,7.0,68,0.00,,---,0.00,VWS V14.01,2013-08-08 18:25:00,
2013-08-08 14:30:00,86.6,75.7,30.08,WNW,283,1.0,7.0,70,0.00,,---,0.00,VWS V14.01,2013-08-08 18:30:00,
2013-08-08 14:35:00,86.6,73.4,30.07,SSW,198,2.0,8.0,65,0.00,,---,0.00,VWS V14.01,2013-08-08 18:35:00,
2013-08-08 14:40:00,86.3,75.8,30.07,South,185,0.0,8.0,71,0.00,,---,0.00,VWS V14.01,2013-08-08 18:40:00,
2013-08-08 14:45:00,85.7,74.8,30.07,SSE,167,3.0,4.0,70,0.00,,---,0.00,VWS V14.01,2013-08-08 18:45:00,
2013-08-08 14:50:00,85.5,75.0,30.07,SSW,199,4.0,7.0,71,0.00,,---,0.00,VWS V14.01,2013-08-08 18:50:00,
2013-08-08 14:55:00,85.3,74.0,30.07,South,189,0.0,7.0,69,0.00,,---,0.00,VWS V14.01,2013-08-08 18:55:00,
2013-08-08 15:01:00,85.2,75.2,30.08,South,171,4.0,4.0,72,0.00,,---,0.00,VWS V14.01,2013-08-08 19:01:00,
2013-08-08 15:06:00,84.7,74.3,30.07,SW,234,1.0,8.0,71,0.00,,---,0.00,VWS V14.01,2013-08-08 19:06:00,
2013-08-08 15:11:00,83.9,72.7,30.07,South,182,0.0,8.0,69,0.00,,---,0.00,VWS V14.01,2013-08-08 19:11:00,
2013-08-08 15:16:00,83.8,73.4,30.07,SSW,195,1.0,3.0,71,0.00,,---,0.00,VWS V14.01,2013-08-08 19:16:00,
2013-08-08 15:21:00,83.7,73.3,30.07,South,190,1.0,4.0,71,0.00,,---,0.00,VWS V14.01,2013-08-08 19:21:00,
2013-08-08 15:26:00,83.6,73.6,30.07,SW,215,1.0,4.0,72,0.00,,---,0.00,VWS V14.01,2013-08-08 19:26:00,
2013-08-08 15:31:00,83.5,73.5,30.07,SSE,165,1.0,1.0,72,0.00,,---,0.00,VWS V14.01,2013-08-08 19:31:00,
2013-08-08 15:36:00,83.6,73.6,30.07,SSW,210,1.0,5.0,72,0.00,,---,0.00,VWS V14.01,2013-08-08 19:36:00,
2013-08-08 15:41:00,83.7,74.1,30.06,WSW,237,0.0,5.0,73,0.00,,---,0.00,VWS V14.01,2013-08-08 19:41:00,
2013-08-08 15:46:00,84.0,74.4,30.06,WSW,257,0.0,1.0,73,0.00,,---,0.00,VWS V14.01,2013-08-08 19:46:00,
2013-08-08 15:52:00,84.0,74.0,30.06,SSE,165,3.0,3.0,72,0.00,,---,0.00,VWS V14.01,2013-08-08 19:52:00,
2013-08-08 15:57:00,83.7,73.7,30.06,SSE,161,2.0,5.0,72,0.00,,---,0.00,VWS V14.01,2013-08-08 19:57:00,
2013-08-08 16:02:00,83.5,74.3,30.06,SE,146,0.0,3.0,74,0.00,,---,0.00,VWS V14.01,2013-08-08 20:02:00,
2013-08-08 16:07:00,83.5,73.5,30.06,South,173,3.0,4.0,72,0.00,,---,0.00,VWS V14.01,2013-08-08 20:07:00,
2013-08-08 16:12:00,83.7,74.5,30.05,South,173,3.0,6.0,74,0.00,,---,0.00,VWS V14.01,2013-08-08 20:12:00,
2013-08-08 16:17:00,83.9,74.7,30.06,SSE,153,1.0,2.0,74,0.00,,---,0.00,VWS V14.01,2013-08-08 20:17:00,
2013-08-08 16:22:00,84.1,74.1,30.06,SSE,161,3.0,5.0,72,0.00,,---,0.00,VWS V14.01,2013-08-08 20:22:00,
2013-08-08 16:27:00,84.4,74.0,30.05,SSW,213,2.0,6.0,71,0.00,,---,0.00,VWS V14.01,2013-08-08 20:27:00,
2013-08-08 16:32:00,84.4,74.0,30.05,SSW,199,4.0,4.0,71,0.00,,---,0.00,VWS V14.01,2013-08-08 20:32:00,
2013-08-08 16:37:00,84.7,73.8,30.05,South,178,3.0,5.0,70,0.00,,---,0.00,VWS V14.01,2013-08-08 20:37:00,
2013-08-08 16:43:00,85.1,73.8,30.05,SSW,204,5.0,6.0,69,0.00,,---,0.00,VWS V14.01,2013-08-08 20:43:00,
2013-08-08 16:48:00,85.3,74.4,30.05,South,191,5.0,6.0,70,0.00,,---,0.00,VWS V14.01,2013-08-08 20:48:00,
2013-08-08 16:53:00,85.6,74.7,30.04,SSE,157,1.0,6.0,70,0.00,,---,0.00,VWS V14.01,2013-08-08 20:53:00,
2013-08-08 16:58:00,85.5,73.7,30.04,SSE,159,1.0,6.0,68,0.00,,---,0.00,VWS V14.01,2013-08-08 20:58:00,
2013-08-08 17:03:00,85.4,74.9,30.04,SE,142,2.0,5.0,71,0.00,,---,0.00,VWS V14.01,2013-08-08 21:03:00,
2013-08-08 17:08:00,85.5,73.3,30.04,SW,236,2.0,5.0,67,0.00,,---,0.00,VWS V14.01,2013-08-08 21:08:00,
2013-08-08 17:13:00,85.5,74.6,30.04,South,171,3.0,7.0,70,0.00,,---,0.00,VWS V14.01,2013-08-08 21:13:00,
2013-08-08 17:18:00,85.5,74.2,30.04,SSE,154,1.0,5.0,69,0.00,,---,0.00,VWS V14.01,2013-08-08 21:18:00,
2013-08-08 17:24:00,85.2,73.9,30.03,SE,145,3.0,7.0,69,0.00,,---,0.00,VWS V14.01,2013-08-08 21:24:00,
2013-08-08 17:29:00,85.2,73.9,30.03,SSW,202,3.0,7.0,69,0.00,,---,0.00,VWS V14.01,2013-08-08 21:29:00,
2013-08-08 17:35:00,85.2,74.3,30.03,SSE,150,4.0,7.0,70,0.00,,---,0.00,VWS V14.01,2013-08-08 21:35:00,
2013-08-08 17:40:00,85.5,74.6,30.04,South,173,2.0,7.0,70,0.00,,---,0.00,VWS V14.01,2013-08-08 21:40:00,
2013-08-08 17:46:00,85.2,74.3,30.04,South,177,1.0,1.0,70,0.00,,---,0.00,VWS V14.01,2013-08-08 21:46:00,
2013-08-08 17:51:00,84.8,73.9,30.04,South,169,0.0,4.0,70,0.00,,---,0.00,VWS V14.01,2013-08-08 21:51:00,
2013-08-08 17:56:00,84.5,73.7,30.04,South,190,0.0,4.0,70,0.00,,---,0.00,VWS V14.01,2013-08-08 21:56:00,
2013-08-08 18:01:00,84.2,73.4,30.04,SSE,156,1.0,4.0,70,0.00,,---,0.00,VWS V14.01,2013-08-08 22:01:00,
2013-08-08 18:07:00,84.1,73.7,30.04,South,187,0.0,4.0,71,0.00,,---,0.00,VWS V14.01,2013-08-08 22:07:00,
2013-08-08 18:12:00,84.2,74.2,30.05,WSW,251,0.0,4.0,72,0.00,,---,0.00,VWS V14.01,2013-08-08 22:12:00,
2013-08-08 18:18:00,84.4,74.0,30.05,SSE,165,3.0,5.0,71,0.00,,---,0.00,VWS V14.01,2013-08-08 22:18:00,
2013-08-08 18:23:00,84.4,74.0,30.05,SSE,163,1.0,5.0,71,0.00,,---,0.00,VWS V14.01,2013-08-08 22:23:00,
2013-08-08 18:28:00,84.3,74.3,30.04,SSE,157,2.0,5.0,72,0.00,,---,0.00,VWS V14.01,2013-08-08 22:28:00,
2013-08-08 18:33:00,84.0,74.4,30.04,South,188,3.0,3.0,73,0.00,,---,0.00,VWS V14.01,2013-08-08 22:33:00,
2013-08-08 18:39:00,83.9,73.9,30.05,South,189,4.0,6.0,72,0.00,,---,0.00,VWS V14.01,2013-08-08 22:39:00,
2013-08-08 18:45:00,83.6,74.0,30.04,South,176,2.0,6.0,73,0.00,,---,0.00,VWS V14.01,2013-08-08 22:45:00,
2013-08-08 18:50:00,83.5,73.5,30.04,SSE,166,3.0,5.0,72,0.00,,---,0.00,VWS V14.01,2013-08-08 22:50:00,
2013-08-08 18:56:00,83.4,73.8,30.05,South,169,2.0,5.0,73,0.00,,---,0.00,VWS V14.01,2013-08-08 22:56:00,
2013-08-08 19:01:00,83.3,73.8,30.05,SW,230,0.0,2.0,73,0.00,,---,0.00,VWS V14.01,2013-08-08 23:01:00,
2013-08-08 19:07:00,83.3,74.2,30.05,WSW,249,2.0,5.0,74,0.00,,---,0.00,VWS V14.01,2013-08-08 23:07:00,
2013-08-08 19:13:00,83.2,74.1,30.05,South,179,1.0,5.0,74,0.00,,---,0.00,VWS V14.01,2013-08-08 23:13:00,
2013-08-08 19:18:00,83.1,74.4,30.05,SSW,192,0.0,3.0,75,0.00,,---,0.00,VWS V14.01,2013-08-08 23:18:00,
2013-08-08 19:23:00,83.0,73.9,30.05,South,188,1.0,4.0,74,0.00,,---,0.00,VWS V14.01,2013-08-08 23:23:00,
2013-08-08 19:28:00,82.9,74.2,30.05,South,183,3.0,4.0,75,0.00,,---,0.00,VWS V14.01,2013-08-08 23:28:00,
2013-08-08 19:33:00,82.7,74.0,30.05,South,182,1.0,3.0,75,0.00,,---,0.00,VWS V14.01,2013-08-08 23:33:00,
2013-08-08 19:39:00,82.4,74.1,30.06,SSE,165,0.0,4.0,76,0.00,,---,0.00,VWS V14.01,2013-08-08 23:39:00,
2013-08-08 19:44:00,82.2,73.9,30.06,SSE,165,0.0,4.0,76,0.00,,---,0.00,VWS V14.01,2013-08-08 23:44:00,
2013-08-08 19:49:00,82.1,73.8,30.06,South,186,2.0,3.0,76,0.00,,---,0.00,VWS V14.01,2013-08-08 23:49:00,
2013-08-08 19:55:00,81.9,74.0,30.06,South,173,1.0,3.0,77,0.00,,---,0.00,VWS V14.01,2013-08-08 23:55:00,
2013-08-08 20:00:00,81.7,73.8,30.06,South,173,0.0,3.0,77,0.00,,---,0.00,VWS V14.01,2013-08-09 00:00:00,
2013-08-08 20:05:00,81.5,74.0,30.06,South,173,0.0,1.0,78,0.00,,---,0.00,VWS V14.01,2013-08-09 00:05:00,
2013-08-08 20:10:00,81.4,73.9,30.06,South,173,0.0,2.0,78,0.00,,---,0.00,VWS V14.01,2013-08-09 00:10:00,
2013-08-08 20:16:00,81.1,74.0,30.06,South,173,0.0,0.0,79,0.00,,---,0.00,VWS V14.01,2013-08-09 00:16:00,
2013-08-08 20:21:00,80.9,73.8,30.06,South,173,0.0,1.0,79,0.00,,---,0.00,VWS V14.01,2013-08-09 00:21:00,
2013-08-08 20:27:00,80.6,73.9,30.06,South,173,0.0,1.0,80,0.00,,---,0.00,VWS V14.01,2013-08-09 00:27:00,
2013-08-08 20:33:00,80.4,73.7,30.06,South,173,0.0,1.0,80,0.00,,---,0.00,VWS V14.01,2013-08-09 00:33:00,
2013-08-08 20:38:00,80.2,73.8,30.06,South,173,0.0,1.0,81,0.00,,---,0.00,VWS V14.01,2013-08-09 00:38:00,
2013-08-08 20:43:00,79.9,73.9,30.06,South,173,0.0,1.0,82,0.00,,---,0.00,VWS V14.01,2013-08-09 00:43:00,
2013-08-08 20:49:00,79.2,73.6,30.06,South,173,0.0,0.0,83,0.00,,---,0.00,VWS V14.01,2013-08-09 00:49:00,
2013-08-08 20:55:00,78.5,73.6,30.06,South,173,0.0,0.0,85,0.00,,---,0.00,VWS V14.01,2013-08-09 00:55:00,
2013-08-08 21:00:00,78.0,73.5,30.06,South,173,0.0,0.0,86,0.00,,---,0.00,VWS V14.01,2013-08-09 01:00:00,
2013-08-08 21:05:00,77.5,73.0,30.06,South,173,0.0,0.0,86,0.00,,---,0.00,VWS V14.01,2013-08-09 01:05:00,
2013-08-08 21:11:00,76.8,72.6,30.06,South,173,0.0,0.0,87,0.00,,---,0.00,VWS V14.01,2013-08-09 01:11:00,
2013-08-08 21:16:00,76.5,72.7,30.06,South,173,0.0,0.0,88,0.00,,---,0.00,VWS V14.01,2013-08-09 01:16:00,
2013-08-08 21:22:00,76.2,72.7,30.06,South,173,0.0,0.0,89,0.00,,---,0.00,VWS V14.01,2013-08-09 01:22:00,
2013-08-08 21:28:00,76.0,72.5,30.06,South,173,0.0,0.0,89,0.00,,---,0.00,VWS V14.01,2013-08-09 01:28:00,
2013-08-08 21:34:00,75.8,72.3,30.07,South,173,0.0,0.0,89,0.00,,---,0.00,VWS V14.01,2013-08-09 01:34:00,
2013-08-08 21:39:00,75.5,72.4,30.07,South,173,0.0,0.0,90,0.00,,---,0.00,VWS V14.01,2013-08-09 01:39:00,
2013-08-08 21:45:00,75.4,72.3,30.07,South,173,0.0,0.0,90,0.00,,---,0.00,VWS V14.01,2013-08-09 01:45:00,
2013-08-08 21:50:00,75.2,72.1,30.07,South,173,0.0,0.0,90,0.00,,---,0.00,VWS V14.01,2013-08-09 01:50:00,
2013-08-08 21:56:00,75.1,72.3,30.07,South,173,0.0,0.0,91,0.00,,---,0.00,VWS V14.01,2013-08-09 01:56:00,
2013-08-08 22:01:00,75.1,72.3,30.07,South,173,0.0,0.0,91,0.00,,---,0.00,VWS V14.01,2013-08-09 02:01:00,
2013-08-08 22:07:00,75.0,72.2,30.07,South,173,0.0,0.0,91,0.00,,---,0.00,VWS V14.01,2013-08-09 02:07:00,
2013-08-08 22:12:00,74.9,72.4,30.07,South,173,0.0,0.0,92,0.00,,---,0.00,VWS V14.01,2013-08-09 02:12:00,
2013-08-08 22:17:00,75.1,72.6,30.07,South,173,0.0,0.0,92,0.00,,---,0.00,VWS V14.01,2013-08-09 02:17:00,
2013-08-08 22:23:00,75.4,72.9,30.07,South,173,0.0,0.0,92,0.00,,---,0.00,VWS V14.01,2013-08-09 02:23:00,
2013-08-08 22:28:00,75.6,73.1,30.07,South,173,0.0,0.0,92,0.00,,---,0.00,VWS V14.01,2013-08-09 02:28:00,
2013-08-08 22:34:00,75.2,72.7,30.07,South,173,0.0,0.0,92,0.00,,---,0.00,VWS V14.01,2013-08-09 02:34:00,
2013-08-08 22:39:00,75.2,72.7,30.07,South,173,0.0,0.0,92,0.00,,---,0.00,VWS V14.01,2013-08-09 02:39:00,
2013-08-08 22:45:00,75.3,72.8,30.07,South,173,0.0,0.0,92,0.00,,---,0.00,VWS V14.01,2013-08-09 02:45:00,
2013-08-08 22:50:00,75.4,72.9,30.07,South,173,0.0,0.0,92,0.00,,---,0.00,VWS V14.01,2013-08-09 02:50:00,
2013-08-08 22:55:00,75.4,72.9,30.07,South,173,0.0,0.0,92,0.00,,---,0.00,VWS V14.01,2013-08-09 02:55:00,
2013-08-08 23:00:00,75.3,72.5,30.07,South,173,0.0,0.0,91,0.00,,---,0.00,VWS V14.01,2013-08-09 03:00:00,
2013-08-08 23:06:00,75.2,72.7,30.07,South,173,0.0,0.0,92,0.00,,---,0.00,VWS V14.01,2013-08-09 03:06:00,
2013-08-08 23:11:00,75.4,72.6,30.07,South,173,0.0,0.0,91,0.00,,---,0.00,VWS V14.01,2013-08-09 03:11:00,
2013-08-08 23:16:00,75.6,72.8,30.07,South,173,0.0,0.0,91,0.00,,---,0.00,VWS V14.01,2013-08-09 03:16:00,
2013-08-08 23:22:00,75.8,73.0,30.07,South,173,0.0,0.0,91,0.00,,---,0.00,VWS V14.01,2013-08-09 03:22:00,
2013-08-08 23:28:00,75.8,73.0,30.07,South,173,0.0,0.0,91,0.00,,---,0.00,VWS V14.01,2013-08-09 03:28:00,
2013-08-08 23:33:00,75.6,72.8,30.07,South,173,0.0,0.0,91,0.00,,---,0.00,VWS V14.01,2013-08-09 03:33:00,
2013-08-08 23:39:00,75.5,72.7,30.07,South,173,0.0,0.0,91,0.00,,---,0.00,VWS V14.01,2013-08-09 03:39:00,
2013-08-08 23:44:00,75.4,72.6,30.06,South,173,0.0,0.0,91,0.00,,---,0.00,VWS V14.01,2013-08-09 03:44:00,
2013-08-08 23:50:00,75.2,72.4,30.06,South,173,0.0,0.0,91,0.00,,---,0.00,VWS V14.01,2013-08-09 03:50:00,
2013-08-08 23:55:00,74.9,72.4,30.06,South,173,0.0,0.0,92,0.00,,---,0.00,VWS V14.01,2013-08-09 03:55:00,